#timestamp,LO_Frequency,Hit,StdDev 
1518710415.1,286046996.9,Y
1518710435.9,286046998.4,P
1518710455.7,286047000.9,N
1518710475.5,286046998.9,N
1518710495.4,286046998.4,N
1518710515.2,286046998.3,N
1518710535.1,286047000.0,N
1518710536.0,286047000.0,N
1518710555.8,286047000.1,N
1518710575.6,286046999.8,N
1518710595.5,286046999.8,N
1518710615.3,286047000.4,N
1518710635.2,286046998.1,N
1518710655.9,286046999.1,N
1518710675.7,286047001.2,N
1518710695.6,286046998.7,N
1518710715.4,286046998.4,N
1518710735.2,286047000.8,N
1518710755.1,286047001.0,N
1518710756.0,286047001.0,N
1518710775.8,286047000.8,N
1518710795.7,286047000.9,N
1518710815.5,286047000.5,N
1518710835.3,286047000.1,N
1518710855.2,286047000.2,N
1518710875.0,286047002.7,N
1518710875.9,286047002.7,N
1518710895.8,286047000.3,N
1518710915.6,286047000.9,N
1518710935.4,286047000.8,N
1518710955.3,286046999.8,N
1518710975.1,286047002.6,N
1518710995.9,286047002.2,N
1518711015.7,286047002.0,N
1518711035.5,286047000.2,N
1518711055.4,286047002.5,N
1518711075.2,286047002.2,N
1518711095.0,286047002.6,N
1518711095.9,286047002.6,N
1518711115.8,286047000.1,N
1518711135.6,286047000.0,N
1518711155.5,286047000.6,N
1518711175.3,286047000.7,N
1518711195.1,286047000.6,N
1518711215.9,286047000.4,N
1518711235.7,286047002.6,N
1518711255.5,286047011.9,Y
1518711275.4,286047000.0,P
1518711295.2,286047000.2,N
1518711315.1,286047000.4,N
1518711316.0,286047000.4,N
1518711335.8,286047000.2,N
1518711355.6,286046999.8,N
1518711375.5,286047000.9,N
1518711395.3,286047001.5,Y
1518711415.2,286047002.1,P
1518711435.9,286046999.7,N
1518711455.7,286047000.3,N
1518711475.6,286046999.9,N
1518711495.4,286047000.5,N
1518711515.2,286047000.1,N
1518711535.1,286047000.1,N
1518711536.0,286047000.1,N
1518711555.8,286047000.2,N
1518711575.7,286046999.9,N
1518711595.5,286047000.0,N
1518711615.3,286047000.7,N
1518711635.2,286047002.8,Y
1518711655.0,286046999.8,P
1518711655.9,286046999.8,N
1518711675.7,286047000.1,N
1518711695.6,286046999.7,N
1518711715.4,286047000.6,N
1518711735.3,286047000.6,N
1518711755.1,286046999.3,N
1518711775.9,286046998.2,Y
1518711795.7,286046998.3,P
1518711815.5,286047000.7,N
1518711835.4,286047000.7,N
1518711855.2,286047001.2,N
1518711875.0,286046998.1,N
1518711876.0,286046998.1,N
1518711895.8,286046998.2,N
1518711915.6,286046998.4,N
1518711935.5,286046998.9,N
1518711955.3,286046996.7,N
1518711975.1,286046997.1,N
1518711995.9,286046997.7,N
1518712015.7,286046996.6,N
1518712035.6,286046997.4,N
1518712055.4,286046995.4,Y
1518712075.2,286046997.3,P
1518712095.1,286046998.9,N
1518712096.0,286046998.9,N
1518712115.8,286046999.3,N
1518712135.7,286046998.7,N
1518712155.5,286046999.1,N
1518712175.3,286046999.4,N
1518712195.2,286046998.9,N
1518712215.0,286046999.0,N
1518712215.9,286046999.0,N
1518712235.8,286046996.9,Y
1518712255.6,286046998.8,P
1518712275.4,286046999.4,P
1518712295.3,286046999.4,N
1518712315.1,286046999.6,N
1518712335.9,286046999.5,N
1518712355.7,286046996.8,Y
1518712375.5,286046999.1,P
1518712395.4,286046998.9,P
1518712415.2,286046998.6,P
1518712435.1,286046999.2,Y
1518712436.0,286046999.2,P
1518712455.8,286046998.2,P
1518712475.6,286046998.4,P
1518712495.5,286046998.8,Y
1518712515.3,286046999.7,P
1518712535.2,286047002.8,P
1518712555.0,286047002.8,N
1518712555.9,286047002.8,N
1518712575.8,286047002.8,N
1518712595.6,286047001.0,N
1518712615.4,286047001.1,N
1518712635.3,286046998.1,N
1518712655.1,286047001.1,N
1518712675.9,286046998.5,N
1518712695.7,286046999.3,N
1518712715.5,286046999.0,N
1518712735.4,286046999.0,N
1518712755.2,286046998.8,N
1518712775.1,286046998.6,N
1518712776.0,286046998.6,N
1518712795.8,286046999.0,N
1518712815.6,286046998.9,N
1518712835.5,286046999.4,N
1518712855.3,286046999.0,N
1518712875.2,286046999.2,N
1518712895.9,286046996.9,N
1518712915.7,286046997.4,N
1518712935.6,286046996.8,N
1518712955.4,286046997.3,N
1518712975.2,286046997.4,N
1518712995.1,286046995.5,N
1518712996.0,286046995.5,N
1518713015.8,286046995.0,N
1518713035.7,286046997.4,N
1518713055.5,286046997.6,N
1518713075.3,286046997.2,N
1518713095.2,286046996.8,N
1518713115.0,286046996.8,N
1518713115.9,286046996.8,N
1518713135.8,286046996.8,N
1518713155.6,286046997.9,N
1518713175.4,286046995.4,Y
1518713195.3,286046999.2,P
1518713215.1,286046998.3,N
1518713235.8,286046998.7,N
1518713255.7,286047000.7,N
1518713275.5,286047001.0,N
1518713295.4,286047001.1,N
1518713315.2,286046999.4,N
1518713335.0,286046997.0,N
1518713335.9,286046997.0,N
1518713355.8,286046997.3,N
1518713375.6,286046997.1,N
1518713395.4,286046996.5,N
1518713415.3,286046996.6,N
1518713435.1,286046996.7,N
1518713455.9,286046997.4,N
1518713475.7,286046996.5,N
1518713495.5,286046999.6,N
1518713515.4,286046996.6,N
1518713535.2,286046996.6,N
1518713555.0,286046998.7,N
1518713555.9,286046998.7,N
1518713575.8,286046996.9,N
1518713595.6,286046996.6,N
1518713615.4,286046999.5,N
1518713635.3,286046996.6,N
1518713655.1,286046996.6,N
1518713675.9,286046998.7,N
1518713695.7,286046996.9,N
1518713715.5,286046997.3,N
1518713735.4,286046997.1,N
1518713755.2,286046997.7,N
1518713775.0,286046996.7,N
1518713775.9,286046996.7,N
1518713795.8,286046996.9,N
1518713815.6,286046997.1,N
1518713835.5,286046997.3,N
1518713855.3,286046995.0,Y
1518713875.1,286046998.3,P
1518713895.9,286046998.3,P
1518713915.7,286047001.2,N
1518713935.5,286046998.4,N
1518713955.4,286046998.8,N
1518713975.2,286046998.2,N
1518713995.1,286047001.0,N
1518713996.0,286047001.0,N
